星链-5136 (STARLINK-5136 )

导读

STARLINK-5136是美国SpaceX星链(Starlink)项目的卫星,于2023年5月4日发射升空,属于 SpaceX 构建全球卫星互联网星座的一员。星链项目通过批量发射低轨卫星,为全球提供高速互联网接入服务,STARLINK-5136入轨后,承担全球网络覆盖补点、星座扩容优化的任务,服务民用、商业等领域网络需求。

基本信息
目录编号:
56414
目录名称:
STARLINK-5136
国际标识:
2023-061AS
轨道中心:
EARTH
卫星名称:
星链-5136
卫星全名:
星链-5136 (STARLINK-5136 )
卫星状态:
在轨 (已飞行1138 天)
发射日期:
2023-05-04 UTC
国别 :
美国 (US)
星等 :
--
轨道信息
数据来源 国际轨道数据
星历时间: 2026-06-13T14:48:42+0800
2天前
查看轨道信息
半长轴: 6861.199km
偏心率: 0.0001573
轨道倾角: 43.006°
近地点辐角 279.641°
升交点赤经 7.239°
平近点角 80.427°
近地点: 481.982km
远地点: 484.142km
周期: 94.267分钟
每日圈数: 15.275758
详细信息
固有亮度:
5
最大亮度:
2.5
卫星平台:
Starlink v1.5
覆盖范围:
全球
运营商:
太空探索技术公司
运营商所在国:
美国
制造商(研发单位):
太空探索技术公司
制造商所在国:
美国
使用方式:
暂无
卫星简介
星链(Starlink)计划是由太空探索技术公司(SpaceX)提出的一个巨型低轨卫星互联网星座项目,计划在2019年至2024年间在太空搭建由约1.2万颗卫星组成的“星链”网络,其中1584颗将部署在地球上空550千米处的近地轨道,并从2020年开始工作。该卫星仍在工作。
2D轨道图
3D轨道图
轨道高度分析图
轨道倾角分析图
轨道综合分析图
查看轨道综合分析图